Presure
261 285 251 294 299 289 286 276 277 292 297 264 237 252 232 212 201 196 197 207 209 208 210 205 215 210 206 204 197 231 190 204 211 212 209 206 208 213 213 229 282 297 301 311 309 308 309 302 291 281 278 272 270 257
299 262 253 307 296 291 288 281 279 282 284 280 258 281 256 240 213 203 204 214 219 225 202 199 199 197 201 197 224 200 205 214 212 217 223 218 210 218 267 270 309 308 303 321 294 301 300 292 283 281 284 279 270 264
275 256 289 302 317 315 297 294 287 281 284 283 278 256 249 279 243 239 228 213 212 210 190 196 195 208 200 212 211 224 219 217 216 221 213 223 250 280 242 267 272 312 313 297 307 298 288 287 284 278 281 279 270 260
261 275 271 273 274 269 345 331 302 310 298 287 274 272 286 277 230 248 262 248 230 210 205 205 215 211 204 206 213 227 245 235 240 272 279 266 267 307 326 327 323 300 300 307 222 212 280 283 276 277 275 276 274 267
266 269 270 271 266 297 306 326 327 318 307 303 288 283 267 263 256 252 239 241 266 262 235 228 241 218 244 262 283 283 240 231 230 261 268 324 326 329 319 312 289 298 238 301 300 285 279 277 278 284 284 269 271 276
272 262 266 265 272 269 273 275 290 298 317 322 297 286 283 279 276 272 262 258 274 277 279 271 281 282 284 281 277 272 240 259 280 325 318 317 319 318 298 294 299 313 306 302 306 308 308 309 327 315 307 296 313 326
264 265 267 266 258 260 264 271 272 276 302 313 331 310 305 299 277 272 276 280 277 279 276 270 271 275 280 308 325 306 304 319 318 317 309 307 296 302 299 299 307 320 334 335 335 333 331 331 334 325 324 332 333 344
346 318 322 264 259 255 257 255 256 263 275 290 293 310 311 302 319 314 273 274 290 303 301 312 308 305 311 307 312 318 313 310 307 304 290 289 299 309 318 326 319 330 335 331 401 474 470 477 485 329 207 341 253 320
338 329 331 326 322 276 262 259 259 258 261 262 259 267 269 268 264 269 309 306 306 309 321 315 310 311 308 309 311 306 309 297 289 291 298 305 312 322 331 330 323 395 408 405 401 406 175 420 428 438 456 151 156 326
319 307 312 312 313 313 312 268 265 255 252 254 257 257 258 256 252 250 242 245 258 262 258 258 249 255 304 303 301 293 290 291 296 302 221 330 332 320 314 398 391 389 392 383 374 371 382 133 186 419 447 464 340 345
305 310 309 293 294 294 299 308 296 282 277 271 258 288 289 257 256 262 262 270 287 304 303 298 293 288 285 283 291 296 298 306 319 327 326 318 345 403 387 375 366 363 356 349 352 359 373 382 387 401 421 453 343 353
297 288 287 285 285 295 296 300 307 300 283 283 285 296 288 291 297 295 293 290 287 287 289 286 281 289 296 293 297 309 311 333 324 319 376 412 383 368 350 352 358 347 342 338 346 356 240 369 376 395 412 438 347 350
279 283 293 276 294 296 294 289 284 283 282 281 287 292 289 284 281 280 278 278 279 289 299 297 289 292 299 311 327 332 325 315 308 418 395 378 343 337 349 341 328 327 337 338 340 145 179 362 377 399 419 460 349 338
279 273 271 276 276 274 276 280 281 281 284 282 278 277 276 274 275 275 287 291 292 295 300 302 302 312 324 330 320 311 302 379 404 393 370 351 329 332 335 334 334 333 337 337 353 369 281 394 143 401 254 199 183 314
267 267 268 272 271 270 268 268 265 264 265 265 273 290 291 292 293 296 300 293 288 302 312 311 316 323 322 307 296 461 422 387 380 362 337 328 329 333 322 323 324 329 322 331 338 354 360 388 160 404 160 346 269 256
261 258 261 262 266 268 270 280 289 291 286 284 288 289 291 297 306 304 303 313 306 304 317 328 316 306 372 409 469 422 393 375 361 337 323 322 321 318 318 309 321 319 327 332 336 133 355 396 304 400 429 175 191 170
261 268 275 276 272 272 280 278 276 286 307 298 299 301 302 307 307 303 297 306 317 314 310 298 401 407 407 422 442 396 374 357 348 320 311 329 299 314 302 305 303 316 315 324 338 359 347 343 402 328 327 303 176 173
261 264 277 289 294 281 296 294 293 294 293 297 299 297 294 297 309 309 306 303 310 316 410 395 394 399 395 443 407 377 358 348 323 306 319 331 312 302 302 304 270 125 129 133 331 367 381 373 313 181 197 299 192 211
291 294 293 291 287 290 294 293 291 293 292 290 296 303 301 297 319 342 369 409 404 396 394 391 390 393 405 435 376 355 349 328 301 312 310 322 310 302 297 300 305 322 313 165 351 343 359 301 194 203 231 257 260 201
285 285 294 293 290 290 294 295 289 289 299 298 297 333 347 335 389 407 397 390 387 381 381 386 390 383 425 377 356 343 342 320 309 310 317 309 316 301 299 306 311 329 327 329 345 341 310 298 301 183 293 274 220 198
298 307 307 304 307 308 299 296 294 361 387 391 333 330 391 400 387 387 377 377 386 400 406 407 423 425 391 358 344 328 316 320 302 313 306 305 306 311 309 307 317 321 314 325 341 321 294 304 296 283 278 274 292 196
297 304 300 292 286 301 345 339 328 326 345 401 398 388 381 373 369 372 383 411 493 489 418 419 444 386 357 334 332 328 320 314 313 303 298 300 301 302 301 312 314 312 314 328 350 289 295 299 230 264 266 274 221 282
281 279 306 333 338 334 364 407 397 388 379 374 374 371 370 365 372 448 493 493 507 472 431 442 373 351 333 331 321 317 315 307 301 303 299 301 305 311 311 317 310 313 327 348 277 279 291 293 261 258 263 268 262 267
327 326 331 376 399 386 389 375 373 370 367 368 366 359 362 376 443 455 434 422 436 435 389 358 335 328 320 319 315 308 305 301 292 289 297 306 315 323 309 308 321 332 344 285 270 273 291 265 266 252 252 248 267 261
321 367 382 372 368 369 367 367 364 364 365 360 357 361 375 447 442 439 432 417 375 368 339 318 299 317 310 302 303 307 311 290 287 293 308 323 313 300 310 316 334 347 319 263 266 265 284 280 269 277 258 263 258 271
370 368 360 354 353 354 350 350 350 357 360 357 357 366 448 433 419 399 377 359 353 327 323 312 312 301 298 299 304 311 288 288 290 318 313 294 302 307 310 314 305 281 267 262 258 266 270 302 291 267 276 272 258 286
359 352 347 349 346 353 347 349 351 352 360 351 352 391 429 403 388 359 361 332 320 321 317 306 297 294 296 300 308 289 288 291 316 303 294 299 299 304 290 275 271 267 259 257 252 257 256 270 255 266 268 259 250 268
340 336 338 346 336 341 344 338 335 351 354 355 353 414 402 386 350 354 324 316 313 312 301 299 299 302 303 292 289 285 294 308 295 289 293 294 290 273 268 274 261 266 260 255 252 254 275 252 253 252 269 270 269 251
331 332 330 334 338 341 328 300 314 350 351 350 350 411 389 351 350 325 313 305 308 300 291 298 294 291 288 287 285 294 303 294 282 282 294 283 272 263 270 258 267 255 254 252 252 257 259 261 263 267 261 258 260 261
317 318 319 350 387 350 330 304 284 346 357 333 335 397 369 348 328 316 301 310 297 296 292 291 288 282 284 285 291 303 291 279 281 286 278 274 262 263 261 262 257 254 254 255 256 252 249 255 256 256 257 253 253 246
328 344 353 364 397 331 430 346 291 342 356 328 328 398 338 336 316 300 313 297 289 289 290 288 279 277 278 291 301 299 281 285 271 279 272 271 266 261 261 261 249 252 256 252 252 251 252 249 247 251 250 251 245 245
330 337 342 354 379 396 406 365 311 328 352 336 311 397 349 325 312 309 305 290 291 287 289 284 275 273 273 297 295 284 276 277 273 271 266 268 272 261 263 254 257 243 245 255 253 251 252 250 250 252 251 246 243 244
337 339 345 351 351 375 373 353 326 325 349 372 308 441 348 325 308 309 300 293 279 289 288 282 279 278 274 294 296 273 279 270 269 268 261 258 265 267 264 260 251 254 252 244 245 250 252 250 251 250 247 245 247 247
Wind_Speed
92 87 90 83 82 83 85 92 91 89 90 117 115 123 122 119 125 115 109 122 129 124 122 113 117 116 114 104 86 120 63 95 121 115 112 105 106 106 108 128 95 79 71 64 60 56 52 44 47 46 47 45 44 44
74 83 85 75 76 78 79 84 88 88 91 96 105 96 120 128 120 112 119 132 131 130 115 109 110 99 107 84 122 89 107 127 117 124 126 119 100 113 108 91 74 72 70 60 58 54 51 47 46 46 49 47 42 42
71 78 65 60 64 70 75 79 82 84 86 86 89 105 108 96 125 130 127 116 123 123 92 98 102 134 111 129 123 136 127 122 124 129 110 125 131 97 112 93 87 69 63 60 58 53 53 49 47 47 48 46 44 40
66 61 61 61 61 64 59 64 71 73 78 81 87 89 83 91 109 110 111 119 129 115 110 113 125 118 108 111 118 134 129 132 128 106 97 103 103 83 69 68 64 64 65 64 31 31 51 52 52 52 53 53 51 44
56 56 57 56 58 51 49 49 56 63 65 70 75 80 88 90 94 100 107 109 100 108 120 109 121 117 130 114 102 98 109 115 115 103 100 74 72 72 66 63 63 71 45 63 57 58 55 53 60 63 59 54 52 52
50 53 52 53 53 53 52 52 47 48 54 60 69 75 79 80 83 85 90 91 89 91 92 98 94 92 92 92 93 94 109 102 96 72 72 72 71 71 65 67 74 70 67 66 64 65 64 66 68 68 68 63 62 59
49 49 49 50 51 50 49 47 47 48 48 46 46 56 64 71 77 78 80 82 84 85 88 89 90 90 90 80 72 79 79 72 70 69 69 69 70 72 70 71 71 73 71 69 67 65 64 65 61 61 59 59 54 54
19 29 29 47 49 50 51 52 52 50 48 46 48 48 51 56 55 58 75 77 75 72 74 69 72 75 72 74 73 69 69 68 67 68 67 69 73 73 73 70 69 67 66 63 39 21 19 17 23 56 38 56 38 48
16 18 16 21 23 46 50 50 51 51 51 52 52 50 52 55 59 59 58 60 61 61 60 62 65 65 66 67 67 67 67 66 67 68 70 70 70 68 65 64 62 21 14 15 19 21 12 19 20 25 30 30 31 48
21 25 22 23 25 25 28 48 50 52 53 52 53 55 56 59 59 62 64 66 66 66 67 67 66 68 64 66 67 66 66 68 70 68 45 64 61 60 58 11 14 13 10 10 10 15 18 24 22 21 22 22 44 46
18 15 17 28 30 32 33 32 38 46 49 50 54 49 51 57 60 60 62 62 61 58 59 61 62 63 64 67 67 67 67 67 65 63 58 57 39 10 5 5 6 3 5 12 12 13 17 17 17 17 18 19 39 44
18 25 28 31 33 31 32 32 31 34 45 45 46 45 49 51 51 52 54 56 58 61 62 63 63 65 65 65 64 63 61 58 57 55 25 12 10 10 11 3 3 8 13 14 16 11 14 15 15 18 17 16 37 41
27 25 24 32 28 31 31 34 38 42 43 45 45 46 48 50 53 55 57 59 61 64 64 64 63 64 63 61 58 54 54 53 52 16 13 12 11 14 4 1 5 9 7 9 11 14 15 12 16 19 18 17 34 39
22 27 30 31 34 38 40 41 41 43 45 46 47 48 52 54 55 57 60 60 61 61 61 60 59 59 57 53 52 52 51 22 16 14 16 9 11 7 3 2 1 3 5 11 17 14 12 19 19 13 7 10 6 37
28 31 33 35 37 39 40 41 42 44 47 49 51 54 55 56 56 57 57 57 56 58 57 55 55 54 51 50 50 16 17 17 17 18 11 10 10 10 8 5 1 1 1 7 7 13 14 13 20 8 15 28 22 25
32 34 36 38 40 43 45 47 48 49 49 50 51 53 53 54 55 55 55 55 55 55 55 52 52 50 33 20 17 19 21 20 20 17 15 15 16 14 10 7 2 3 8 7 6 13 7 12 6 3 4 10 16 11
37 39 41 42 43 44 47 47 47 50 50 50 51 51 52 52 52 52 52 53 53 53 51 49 26 23 19 15 19 25 24 20 19 18 16 20 17 17 13 10 5 3 4 4 8 13 6 3 4 29 30 34 9 8
36 40 46 48 47 47 47 47 48 48 49 50 50 50 51 52 52 52 52 51 49 45 24 24 21 19 15 17 25 24 23 22 23 19 19 20 20 17 13 9 7 10 6 6 5 11 13 9 30 18 20 35 17 25
47 45 46 46 46 46 47 47 48 48 50 50 50 51 51 51 48 44 38 27 24 23 22 21 18 16 11 20 27 26 28 29 22 22 18 21 21 17 16 11 6 1 5 20 5 11 10 33 26 21 24 34 32 25
44 44 45 45 46 47 48 48 49 50 51 51 50 45 44 44 32 26 25 25 23 22 22 20 17 12 16 30 30 29 29 29 24 20 19 18 17 18 13 9 6 9 9 9 6 15 35 35 34 21 34 34 28 21
44 43 43 44 45 46 46 47 49 40 36 35 40 42 29 24 25 24 25 25 23 21 18 15 15 17 32 32 31 30 30 27 22 22 19 16 13 12 12 10 7 14 14 11 7 28 38 36 37 37 36 33 31 21
42 42 43 43 44 45 42 42 42 42 36 21 19 22 22 23 24 25 24 21 17 16 14 14 18 34 35 33 32 31 29 26 25 22 20 17 13 13 11 8 19 15 15 11 8 39 38 37 35 37 35 32 26 30
41 42 43 43 42 40 29 14 15 17 18 19 19 20 20 21 21 19 14 10 6 8 16 23 36 37 35 34 31 28 27 26 23 21 17 14 13 14 12 19 18 16 12 8 42 39 37 37 37 37 34 33 33 33
42 41 40 27 16 16 13 16 17 16 17 17 18 18 19 17 13 5 5 12 15 23 38 40 39 37 30 31 30 28 28 27 23 19 15 11 13 21 21 14 10 7 11 41 41 39 39 39 38 38 37 36 34 33
40 27 18 18 17 16 16 14 14 14 15 14 13 13 12 6 3 11 22 27 39 42 42 33 21 36 33 31 28 27 27 25 22 17 12 21 29 22 19 19 19 21 33 43 41 39 38 38 37 37 36 35 33 33
18 17 17 17 16 15 16 14 13 12 10 9 8 7 2 8 23 29 39 39 43 44 40 33 38 35 31 28 26 27 28 24 20 18 33 29 26 25 26 30 40 47 46 44 43 39 38 41 42 36 37 36 31 40
15 15 15 15 14 12 13 14 13 11 9 6 4 2 11 26 32 38 40 47 43 41 41 39 35 31 30 28 30 29 26 22 26 37 32 31 33 33 42 47 46 46 44 43 41 38 38 38 35 36 36 33 30 33
14 14 14 13 12 12 10 8 6 7 7 6 6 9 26 32 38 43 47 42 41 42 39 36 34 33 34 33 30 28 25 32 41 36 35 39 41 49 48 47 45 44 43 41 40 38 44 37 36 35 39 39 38 33
13 13 12 11 10 8 9 8 4 5 8 11 13 20 29 39 43 48 42 39 43 40 35 36 36 36 33 32 30 28 35 43 38 37 40 44 49 49 51 48 49 47 45 43 41 40 40 40 40 42 40 38 36 35
13 13 12 13 13 9 9 10 10 7 10 17 19 24 37 41 48 44 36 44 40 40 38 39 37 35 32 30 28 34 44 40 41 39 45 46 51 49 49 49 48 48 47 46 45 43 41 41 40 38 37 36 35 32
14 13 12 12 17 8 5 9 12 10 13 21 21 27 36 47 46 35 46 42 38 38 39 39 37 34 31 26 31 41 45 41 41 44 45 46 49 50 52 51 43 43 48 46 45 44 43 41 39 39 37 36 35 34
13 12 10 10 12 8 0 12 14 12 15 23 23 28 45 49 47 44 46 40 42 40 40 40 37 34 32 29 37 48 43 45 42 46 44 44 46 49 50 49 51 39 38 46 44 42 42 40 39 38 38 36 35 34
13 11 10 8 6 3 8 14 17 15 16 17 26 19 46 50 44 46 45 44 38 42 42 42 39 36 34 32 43 44 45 47 45 46 45 43 43 44 46 48 45 46 45 40 40 42 43 41 40 40 38 37 37 37
Wind_Direction
252 253 254 257 255 254 254 254 254 256 257 254 255 255 254 254 261 269 272 274 274 276 277 280 282 284 287 291 292 289 286 303 300 299 302 303 305 305 306 303 302 297 293 284 282 284 282 276 267 264 261 259 260 261
250 250 254 255 253 253 253 254 253 254 255 257 258 260 257 252 258 262 262 264 269 271 277 284 280 292 291 298 290 301 298 295 294 294 295 297 303 302 298 299 290 287 288 281 287 283 278 272 268 265 261 257 256 257
245 248 253 254 252 252 252 253 253 254 255 255 257 258 259 261 257 258 260 264 267 267 281 278 284 279 287 285 287 284 287 290 292 292 295 295 294 295 296 297 296 284 282 286 281 276 274 274 272 271 268 264 257 252
245 250 252 253 254 256 247 249 251 251 250 252 256 258 258 259 261 262 264 263 262 269 273 274 274 277 282 284 285 284 285 286 288 289 290 291 292 290 284 285 285 287 282 277 282 284 280 278 273 268 265 261 258 253
246 249 252 253 255 253 252 250 249 249 249 250 253 255 259 260 261 263 264 265 267 267 269 272 273 275 276 279 281 283 285 286 287 289 289 287 286 285 288 290 290 280 281 284 284 279 272 268 268 265 259 256 255 257
244 245 249 251 253 255 255 255 255 254 251 252 251 253 254 255 259 262 263 265 266 268 271 272 275 277 278 280 281 282 284 285 287 287 287 288 287 288 293 290 285 288 288 284 279 276 275 272 266 261 259 257 256 252
243 244 245 247 250 252 254 255 256 256 256 253 251 251 252 255 257 259 262 265 267 268 270 273 275 277 279 280 282 282 284 287 287 288 289 291 292 292 292 288 289 286 284 282 280 277 274 269 263 260 256 254 249 243
219 237 239 245 247 249 251 254 256 257 256 253 253 249 249 254 255 257 263 266 268 270 272 274 276 277 280 281 282 284 285 285 288 289 292 291 290 290 288 288 288 287 284 283 285 300 291 279 280 255 252 245 244 233
199 216 223 227 229 243 248 251 253 255 256 257 260 259 258 259 262 265 262 265 269 275 278 278 279 280 281 282 282 284 287 289 290 291 290 290 290 289 288 288 289 277 274 286 291 295 268 289 275 267 263 260 270 226
206 223 228 231 236 241 242 246 249 254 258 259 259 261 261 264 267 267 269 271 272 273 276 277 279 281 282 284 286 289 290 290 290 290 285 288 288 289 290 254 272 288 312 334 323 315 319 261 261 293 290 269 224 222
220 223 232 233 238 241 245 250 248 250 254 258 260 262 261 264 266 269 271 273 275 275 276 278 281 284 285 286 288 288 288 288 288 287 289 289 286 228 225 273 294 331 299 286 294 314 323 316 305 308 294 280 212 212
228 234 238 241 245 250 253 259 260 260 258 261 262 266 267 268 270 271 273 275 277 278 279 281 283 283 283 285 287 288 288 288 287 289 272 202 209 214 259 274 329 282 298 296 305 304 277 322 309 304 291 280 202 201
239 245 251 249 254 258 260 261 260 260 263 266 270 271 271 273 274 275 277 279 280 280 279 279 282 284 285 286 288 289 288 287 287 206 210 186 251 268 213 226 292 266 282 301 309 250 264 307 316 312 304 294 194 193
248 249 251 253 256 259 261 265 269 272 273 273 275 276 276 276 277 278 277 277 279 280 281 283 284 285 288 290 288 286 285 260 203 189 173 196 242 225 167 143 188 294 13 9 353 336 298 330 237 319 200 175 164 185
254 257 260 263 265 269 271 274 273 272 273 273 274 275 275 276 277 279 279 280 281 283 284 286 287 286 288 286 285 228 198 204 188 184 175 196 190 154 163 166 180 33 293 348 2 346 346 342 215 345 209 172 182 192
262 265 268 270 272 272 273 274 276 276 275 276 277 278 279 280 281 281 282 283 284 285 286 287 286 286 284 278 246 197 187 185 176 181 188 195 189 179 161 180 89 39 30 16 6 198 358 355 210 58 68 198 201 159
272 275 275 276 276 276 278 278 277 278 281 280 281 281 281 282 283 283 284 284 284 284 285 284 276 273 271 267 212 185 183 175 171 181 202 187 232 183 196 168 160 103 102 36 346 11 26 42 31 154 157 168 173 179
278 278 281 279 279 279 280 281 281 281 281 281 281 282 282 283 284 285 284 283 284 282 275 274 272 265 258 238 186 178 169 163 168 208 178 175 188 190 173 169 190 194 206 232 70 32 41 111 154 189 179 168 214 208
283 283 282 280 279 280 280 280 280 281 281 282 283 283 284 284 287 288 288 284 280 276 271 268 262 258 251 201 172 169 164 166 218 173 183 179 185 181 186 182 166 110 163 223 76 99 86 154 202 188 188 180 180 207
283 282 282 282 281 281 282 282 282 282 283 282 285 287 288 288 288 288 287 284 281 274 270 266 254 233 214 171 168 165 161 170 181 178 169 174 188 192 192 180 167 147 131 105 80 138 150 154 156 176 166 172 192 209
285 286 284 284 285 285 284 284 283 287 287 285 289 287 286 286 286 286 284 282 280 275 264 248 220 200 169 164 160 165 177 158 178 166 169 174 180 176 176 170 170 159 149 151 147 156 157 152 158 166 167 166 161 214
288 289 288 285 284 286 290 289 287 287 287 284 282 284 288 291 291 291 290 288 285 274 223 193 185 160 157 165 155 155 156 161 158 161 171 172 170 170 174 186 156 153 165 167 176 156 155 154 183 167 167 162 193 161
287 286 290 293 292 291 290 281 281 284 285 285 286 290 292 294 298 307 306 299 286 184 164 157 152 151 161 151 155 155 154 155 159 164 162 167 172 172 170 160 170 174 171 181 156 157 152 153 167 169 165 163 169 168
294 295 294 293 292 288 283 279 282 282 284 283 290 294 298 306 324 341 123 141 141 139 145 147 153 156 158 151 152 155 155 158 153 155 162 162 164 146 156 164 157 158 153 152 154 157 148 167 167 175 177 181 169 176
295 294 293 290 289 289 290 289 283 280 280 287 292 292 307 335 104 125 126 132 142 144 147 163 166 153 149 158 157 157 157 152 156 155 148 143 141 145 132 133 135 139 146 156 157 161 148 152 163 159 176 173 175 171
290 290 289 290 289 288 287 285 283 281 283 285 290 308 327 142 136 138 144 148 144 150 152 158 150 157 157 155 153 150 153 155 151 146 142 144 139 133 130 134 138 147 157 161 164 159 158 147 152 167 166 170 178 163
285 286 286 287 285 281 272 273 275 275 266 259 251 283 153 147 149 152 149 148 155 156 153 156 164 162 155 150 146 154 153 149 144 147 144 139 136 133 139 148 154 157 163 164 169 168 169 161 171 168 169 176 183 177
286 289 290 289 283 280 276 264 278 266 233 206 173 166 157 158 158 152 156 159 159 156 161 164 158 150 147 150 153 153 150 147 152 148 145 143 142 148 152 154 161 157 161 167 171 172 159 174 175 178 172 172 172 187
282 285 285 287 283 267 251 227 244 230 195 179 168 166 162 164 160 161 164 167 161 163 171 159 154 154 156 155 154 151 152 157 154 149 150 148 152 158 158 166 161 165 167 171 174 174 173 173 174 173 181 185 184 185
281 283 284 305 340 271 234 218 226 196 182 179 174 167 167 168 166 169 173 166 168 169 168 160 159 161 158 157 155 154 161 159 154 155 156 156 161 165 169 172 174 172 172 174 176 181 185 184 184 185 186 189 191 199
291 304 316 330 355 238 5 207 212 189 181 182 180 174 174 170 173 178 173 174 176 176 168 165 166 163 160 156 159 164 166 163 161 162 163 166 167 173 177 179 186 185 179 182 184 188 189 192 196 195 197 197 203 206
295 299 308 321 348 353 229 191 201 192 182 184 183 180 178 176 179 180 179 181 181 179 172 171 173 172 169 164 166 171 169 170 169 169 170 174 176 180 183 187 190 196 197 190 193 196 198 201 203 203 204 208 214 216
292 294 297 298 280 288 201 194 198 194 187 190 187 189 183 182 183 183 182 183 185 180 176 175 173 174 173 172 173 177 175 176 177 177 180 180 183 187 191 194 197 199 201 205 206 204 205 208 209 210 214 217 220 224